Weather History for Whiting Fld NAS, FL

Change the Weather History Date:

Monday, January 7, 2013

  Actual Average Record
Temperature  
Mean Temperature 50 °F -  
Max Temperature 64 °F 59 °F 75 °F (2005)
Min Temperature 37 °F 41 °F 16 °F (2014)
Degree Days  
Heating Degree Days 14    
Moisture  
Dew Point 35 °F    
Average Humidity 58    
Maximum Humidity 83    
Minimum Humidity 31    
Precipitation  
Precipitation 0.00 in - - ()
Sea Level Pressure  
Sea Level Pressure 30.22 in    
Wind  
Wind Speed 5 mph (NE)    
Max Wind Speed 12 mph    
Max Gust Speed -    
Visibility 10 miles    
Events      
Averages and records for this station are not official NWS values.
T = Trace of Precipitation, MM = Missing Value Source: NWS Daily Summary

Daily Weather History Graph

Daily Weather History Graph

Search for Another Location

Airport:

Trip Planner

Search our weather history database for the weather conditions in past years. The results will help you decide how hot, cold, wet, or windy it might be!

Date:

Astronomy

Jan. 07, 2013 Rise Set
Actual Time 6:46 AM CST 5:02 PM CST
Civil Twilight 6:20 AM CST 5:28 PM CST
Nautical Twilight 5:50 AM CST 5:58 PM CST
Astronomical Twilight 5:21 AM CST 6:28 PM CST
Moon 2:14 AM CST (1/7) 1:09 PM CST (1/7)
Length of Visible Light 11h 08m
Length of Day
10h 16m
Waning Crescent, 22% of the Moon is Illuminated
Jan 7
Waning Crescent
Jan 11
New
Jan 18
First Quarter
Jan 26
Full
Feb 3
Last Quarter

Hourly Weather History & Observations

Time (CST) Temp. Windchill Dew Point Humidity Pressure Visibility Wind Dir Wind Speed Gust Speed Precip Events Conditions
12:56 AM 44.1 °F 41.5 °F 37.0 °F 76% 30.24 in 10.0 mi North 4.6 mph - N/A   Clear
1:56 AM 43.0 °F 40.3 °F 36.0 °F 76% 30.23 in 10.0 mi North 4.6 mph - N/A   Clear
2:56 AM 42.1 °F 39.2 °F 35.1 °F 76% 30.23 in 10.0 mi NNE 4.6 mph - N/A   Clear
3:56 AM 41.0 °F 39.0 °F 35.1 °F 79% 30.24 in 10.0 mi NNE 3.5 mph - N/A   Clear
4:56 AM 41.0 °F 38.0 °F 35.1 °F 79% 30.23 in 10.0 mi North 4.6 mph - N/A   Clear
5:56 AM 39.0 °F 36.8 °F 33.1 °F 79% 30.24 in 8.0 mi North 3.5 mph - N/A   Scattered Clouds
6:56 AM 37.9 °F 35.5 °F 33.1 °F 83% 30.25 in 7.0 mi North 3.5 mph - N/A   Scattered Clouds
7:56 AM 42.1 °F 39.2 °F 35.1 °F 76% 30.27 in 9.0 mi NE 4.6 mph - N/A   Scattered Clouds
8:56 AM 48.0 °F - 36.0 °F 63% 30.29 in 10.0 mi ENE 9.2 mph - N/A   Partly Cloudy
9:56 AM 53.1 °F - 35.1 °F 50% 30.28 in 10.0 mi ENE 11.5 mph - N/A   Partly Cloudy
10:56 AM 55.9 °F - 34.0 °F 44% 30.26 in 10.0 mi ENE 10.4 mph - N/A   Partly Cloudy
11:56 AM 60.1 °F - 34.0 °F 38% 30.22 in 10.0 mi ENE 4.6 mph - N/A   Partly Cloudy
12:56 PM 62.1 °F - 33.1 °F 34% 30.20 in 10.0 mi Variable 3.5 mph - N/A   Partly Cloudy
1:56 PM 63.0 °F - 33.1 °F 33% 30.19 in 10.0 mi ENE 4.6 mph - N/A   Scattered Clouds
2:56 PM 64.0 °F - 33.1 °F 31% 30.19 in 10.0 mi NE 8.1 mph - N/A   Scattered Clouds
3:56 PM 63.0 °F - 33.1 °F 33% 30.19 in 10.0 mi ENE 6.9 mph - N/A   Scattered Clouds
4:56 PM 57.0 °F - 37.0 °F 47% 30.20 in 10.0 mi NE 3.5 mph - N/A   Scattered Clouds
5:56 PM 53.1 °F - 36.0 °F 52% 30.21 in 10.0 mi NE 5.8 mph - N/A   Scattered Clouds
6:56 PM 52.0 °F - 35.1 °F 53% 30.21 in 10.0 mi ENE 6.9 mph - N/A   Scattered Clouds
7:56 PM 48.9 °F - 35.1 °F 59% 30.23 in 10.0 mi East 3.5 mph - N/A   Scattered Clouds
8:56 PM 48.9 °F - 35.1 °F 59% 30.23 in 10.0 mi NE 3.5 mph - N/A   Overcast
9:56 PM 48.9 °F - 35.1 °F 59% 30.20 in 10.0 mi ENE 6.9 mph - N/A   Overcast
10:56 PM 48.9 °F - 35.1 °F 59% 30.19 in 10.0 mi ENE 5.8 mph - N/A   Overcast
11:56 PM 48.0 °F - 36.0 °F 63% 30.17 in 10.0 mi East 6.9 mph - N/A   Clear